Vorticity
nan nan nan nan nan nan nan nan nan nan nan nan nan nan nan nan nan nan nan nan nan nan nan nan nan nan nan nan nan nan nan nan nan nan nan nan nan nan nan nan nan nan nan nan nan nan nan nan nan nan nan nan nan nan nan nan nan nan nan nan nan nan nan nan nan nan nan nan nan
nan 8 6 8 11 12 10 8 7 8 9 9 9 10 10 9 9 9 9 8 7 7 8 8 5 4 4 8 10 9 7 5 6 8 10 12 11 9 10 9 7 6 7 10 13 14 11 10 12 11 10 9 8 8 9 8 8 9 8 8 11 12 14 15 13 11 12 14 nan
nan 9 10 10 11 10 9 7 6 6 8 10 10 9 9 9 9 9 8 6 6 8 9 7 5 6 9 12 10 8 5 4 6 9 11 11 9 9 9 8 6 7 9 12 12 10 7 9 12 12 10 7 6 7 10 10 9 10 11 14 14 12 11 11 10 12 14 13 nan
nan 9 10 9 9 10 9 6 5 7 10 11 10 10 10 10 9 8 7 7 9 10 9 5 7 9 10 9 7 7 5 4 7 11 12 10 8 8 9 7 8 9 11 11 9 8 8 11 15 12 9 7 9 11 11 9 9 10 12 14 12 10 9 8 9 11 11 10 nan
nan 10 10 9 9 10 9 7 7 9 11 11 10 9 8 9 8 8 7 9 9 7 4 5 10 9 7 5 7 9 9 9 12 14 12 8 9 9 8 8 9 10 11 10 9 9 10 14 16 12 10 11 13 11 9 6 9 10 10 10 9 9 8 8 9 9 9 8 nan
nan 9 10 10 9 9 9 7 9 12 12 10 8 7 7 7 5 4 5 7 6 5 6 11 12 10 7 7 10 11 12 13 13 11 8 9 10 8 7 9 10 11 10 8 8 10 13 16 16 12 10 11 11 9 8 9 10 10 8 6 7 8 7 7 9 9 7 3 nan
nan 9 10 9 9 10 9 9 11 12 12 9 8 7 7 5 2 2 6 9 10 10 12 13 10 9 8 9 10 10 10 10 9 8 10 11 8 7 9 10 10 10 9 9 10 12 13 16 14 11 9 11 12 11 10 9 7 6 5 4 6 7 8 10 10 8 5 2 nan
nan 9 9 7 8 9 10 11 13 12 11 9 7 7 7 4 3 6 11 13 11 10 11 9 5 5 7 8 8 9 9 10 10 10 11 9 7 9 10 11 10 10 10 11 10 10 12 15 14 11 11 12 10 8 6 4 3 3 4 6 7 8 8 9 7 4 3 4 nan
nan 9 8 6 6 9 12 14 12 11 10 8 7 7 4 3 8 13 16 14 9 9 10 6 3 5 7 8 10 11 12 11 10 10 9 8 8 10 11 12 10 10 11 11 10 10 14 16 13 10 9 8 4 2 2 3 5 6 8 12 10 6 4 3 2 2 4 8 nan
nan 7 8 6 5 8 13 14 11 10 9 8 8 7 4 6 13 15 15 11 7 8 9 6 5 7 8 11 12 12 12 11 10 8 8 8 8 10 11 10 8 9 10 10 11 13 17 16 10 6 5 3 2 3 4 6 8 9 11 11 6 3 2 2 4 7 10 11 nan
nan 6 7 6 6 10 12 11 10 10 9 8 8 9 8 11 13 12 11 9 8 8 9 8 7 9 11 13 11 10 10 10 8 7 8 8 8 9 10 8 8 8 9 10 13 15 16 11 7 4 4 3 7 10 10 9 10 10 10 5 3 5 7 7 9 13 14 13 nan
nan 7 7 6 8 11 10 10 11 9 8 7 9 10 12 11 9 9 10 10 10 11 10 8 9 11 13 12 9 9 10 9 8 8 9 8 8 9 9 9 9 10 10 12 13 13 11 7 5 5 6 7 12 11 9 8 9 10 10 6 7 8 9 10 11 13 12 9 nan
nan 8 9 8 9 10 10 11 12 9 7 8 10 11 12 9 8 10 11 12 12 12 10 8 9 12 12 9 9 9 9 9 9 9 9 8 9 9 10 11 10 11 12 14 12 10 7 6 7 8 8 11 9 6 5 8 10 11 10 10 9 9 9 11 12 11 9 7 nan
nan 8 11 10 9 10 11 13 13 10 7 8 11 11 12 10 9 10 11 11 11 11 10 9 10 10 8 8 8 8 8 9 9 9 9 9 8 9 11 10 9 11 12 12 9 8 8 8 8 9 9 10 7 6 7 10 11 11 11 11 10 10 10 11 11 11 10 9 nan
nan 10 11 10 10 11 12 14 13 9 7 9 11 11 12 10 8 9 9 9 11 11 10 9 9 7 7 7 8 9 10 10 10 10 10 9 10 10 10 9 9 10 10 8 8 10 11 11 11 11 10 10 9 9 10 11 11 11 10 10 10 11 11 11 12 12 12 11 nan
nan 11 11 10 11 12 13 14 12 8 7 8 9 10 11 10 8 6 7 10 12 10 7 6 9 9 7 6 9 11 12 12 11 11 11 11 11 11 10 8 9 9 8 8 9 10 11 12 13 12 11 11 11 11 11 11 11 11 11 11 11 11 11 12 13 13 14 16 nan
nan 11 11 10 11 12 13 13 11 8 6 6 8 10 10 10 8 5 6 10 10 6 4 7 10 9 7 7 10 12 13 12 10 10 10 10 10 10 9 9 9 9 9 10 10 9 10 11 12 12 12 13 13 13 12 13 13 13 12 12 13 14 15 17 18 19 18 19 nan
nan 11 10 10 11 11 11 11 10 8 7 8 10 10 9 9 7 6 6 7 7 6 6 10 11 9 7 8 10 11 10 9 9 9 9 9 10 10 9 9 10 10 11 11 10 10 10 11 11 12 13 14 15 15 15 15 14 14 14 14 17 20 22 24 24 22 18 14 nan
nan 10 10 10 11 10 10 10 10 9 9 10 9 8 8 8 8 8 7 6 5 7 9 11 10 9 8 9 10 9 10 9 8 8 9 10 10 9 9 9 10 10 10 11 11 11 11 12 13 14 15 16 17 17 17 16 15 16 18 20 23 25 25 24 22 18 13 8 nan
nan 9 10 10 11 10 10 10 9 9 9 9 8 8 9 9 9 9 8 6 6 9 10 10 9 9 8 10 10 10 11 10 8 9 10 11 9 9 9 9 9 10 11 12 13 13 14 16 18 20 22 22 21 20 18 18 21 24 27 27 24 21 18 15 13 12 10 8 nan
nan 10 10 10 10 10 10 9 8 8 8 8 9 9 10 10 9 9 9 8 8 10 10 10 9 10 10 11 10 10 12 10 8 9 11 11 9 9 10 11 10 10 10 12 17 21 24 26 28 30 31 29 28 27 27 29 30 29 27 23 17 13 11 9 9 10 10 11 nan
nan 10 10 11 9 8 8 9 8 8 8 8 9 10 10 10 10 9 9 9 10 10 10 10 11 12 13 12 11 10 10 9 8 10 11 10 10 9 11 11 10 10 13 23 36 41 41 38 37 37 36 34 34 35 35 32 26 20 15 12 11 10 9 9 10 10 11 13 nan
nan 10 11 11 8 7 8 10 9 8 8 9 9 10 10 10 10 10 10 10 9 9 12 13 12 13 14 13 11 9 8 8 8 9 10 10 9 9 12 13 12 14 27 47 64 63 53 38 32 32 31 30 29 29 25 19 13 9 6 7 8 9 9 10 10 10 10 13 nan
nan 11 12 10 8 9 10 10 9 8 8 8 9 10 10 10 10 10 10 9 9 10 13 13 12 13 14 13 11 9 8 9 10 10 10 10 9 10 15 16 15 22 37 55 65 66 56 39 24 18 17 17 15 13 9 7 7 6 5 5 6 7 8 8 9 9 9 11 nan
nan 10 11 10 9 10 10 9 9 8 8 9 10 10 10 10 10 9 9 9 9 11 12 14 14 13 13 12 11 10 10 11 11 11 10 10 9 12 17 18 18 25 28 31 31 40 45 45 35 23 13 6 5 4 3 3 6 7 7 5 5 6 5 6 7 8 9 10 nan
nan 10 10 11 10 9 10 10 9 8 8 9 10 10 10 11 10 9 8 9 10 12 13 15 13 9 12 13 11 11 12 12 11 10 10 9 8 12 17 18 18 18 7 5 6 13 21 30 36 34 26 12 6 6 5 3 4 7 8 7 7 7 6 4 4 6 9 9 nan
nan 9 10 10 10 9 10 11 10 9 9 10 10 10 10 10 9 8 8 10 11 13 14 14 10 8 13 14 10 11 12 12 11 10 11 9 9 11 15 19 17 10 -5 -5 5 8 9 12 19 28 32 23 11 8 8 6 5 7 8 8 8 8 8 6 5 5 7 8 nan
nan 8 8 9 10 9 10 11 10 10 10 11 10 10 10 9 9 9 9 10 11 13 15 13 12 13 13 9 8 9 10 11 12 11 10 8 9 11 15 18 14 7 -3 -0 10 9 8 6 8 16 25 29 17 8 6 7 8 9 9 7 7 9 10 10 9 7 6 6 nan
nan 8 8 10 11 10 10 10 10 10 11 12 10 10 10 9 9 9 10 10 11 13 15 14 11 10 7 7 9 10 10 12 13 10 8 7 9 10 12 14 13 10 4 6 12 10 9 7 6 9 16 28 25 13 6 5 6 8 9 7 6 7 10 11 11 12 11 8 nan
nan 9 8 10 12 11 11 11 11 11 13 12 9 9 10 9 8 9 10 11 12 12 14 12 8 5 6 10 12 12 10 10 10 8 7 6 7 9 11 13 12 9 8 9 11 11 11 10 8 7 10 20 25 19 10 6 6 7 7 6 4 6 9 9 9 13 17 13 nan
nan 10 9 11 13 12 12 12 12 11 12 10 9 9 9 8 9 10 12 12 10 10 12 11 8 8 10 13 12 11 10 9 9 8 7 6 6 8 11 11 8 5 8 10 10 11 12 12 10 9 10 17 23 19 12 8 7 7 6 4 3 6 10 9 6 7 13 18 nan
nan 10 10 12 13 13 13 13 13 12 11 10 10 10 9 10 11 11 11 10 8 10 13 13 10 10 12 12 11 10 9 9 8 7 7 7 7 8 10 12 7 1 8 11 8 11 12 13 13 12 12 18 22 18 14 11 8 6 4 3 4 6 10 11 6 3 8 18 nan
nan 10 11 11 12 12 13 13 13 12 10 10 11 10 10 11 11 9 10 10 9 11 14 14 12 10 10 11 11 9 9 9 8 7 8 9 8 8 12 16 5 -8 7 14 7 9 11 13 14 14 14 20 22 15 12 12 11 7 5 4 5 5 7 9 8 6 6 16 nan
nan 10 11 11 11 11 12 13 13 12 10 10 11 11 11 10 10 10 9 9 11 12 15 16 13 10 8 11 11 7 7 9 9 8 9 9 7 7 13 17 1 -17 4 16 8 7 8 12 14 15 17 21 21 13 9 11 11 7 6 6 6 7 7 8 7 7 7 13 nan
nan 11 11 11 10 9 10 11 12 11 10 9 10 10 11 11 11 10 6 7 11 14 16 16 12 8 7 11 10 6 7 9 10 9 8 9 8 7 9 12 -1 -17 1 18 13 6 6 10 13 16 20 23 19 11 8 8 8 6 6 7 7 7 9 10 8 7 7 11 nan
nan 11 12 11 9 7 8 10 11 11 10 9 9 10 12 13 12 8 4 7 12 13 14 14 11 8 10 12 10 6 7 9 9 9 7 8 8 8 8 9 1 -12 -5 15 20 8 4 7 12 17 23 23 17 10 9 9 7 5 6 8 7 7 9 10 8 8 9 8 nan
nan 11 12 10 7 6 7 10 11 10 9 9 11 11 11 12 11 8 5 9 12 10 12 13 10 8 9 12 12 8 5 6 9 8 7 7 8 8 8 10 6 -6 -11 6 22 13 7 6 11 17 23 20 14 11 10 10 7 5 6 8 8 8 10 10 7 7 6 3 nan
nan 11 11 9 6 6 7 10 10 10 9 11 13 11 11 11 9 7 4 10 13 9 11 13 10 7 7 10 10 8 8 9 8 9 8 7 6 6 8 12 9 -2 -15 -6 17 19 15 8 10 17 23 20 12 10 10 9 7 8 8 9 8 8 11 11 7 5 2 -5 nan
nan 12 12 9 7 6 7 10 11 10 10 12 12 10 11 11 7 5 6 12 13 8 9 11 10 7 5 10 13 10 9 9 9 9 9 6 2 3 10 15 10 0 -13 -12 6 17 21 16 13 15 20 18 13 10 8 7 7 8 10 10 9 9 10 10 8 5 1 -9 nan
nan 12 12 10 8 8 8 10 12 12 12 11 10 10 11 10 8 7 11 13 10 9 10 11 9 7 5 10 14 11 9 10 9 8 7 5 0 0 11 17 10 3 -9 -12 -3 7 17 21 20 20 20 17 11 10 9 8 8 8 10 10 10 10 11 10 9 7 5 -1 nan
nan nan nan nan nan nan nan nan nan nan nan nan nan nan nan nan nan nan nan nan nan nan nan nan nan nan nan nan nan nan nan nan nan nan nan nan nan nan nan nan nan nan nan nan nan nan nan nan nan nan nan nan nan nan nan nan nan nan nan nan nan nan nan nan nan nan nan nan nan
CAPE
nan nan nan nan nan nan nan nan 1 1 nan nan nan nan nan nan nan nan nan nan 0 0 0 1 0 nan nan nan nan nan nan nan nan 7 7 7 2 3 3 2 3 3 3 4 3 3 5 4 6 6 6 8 8 7 7 5 1 nan nan nan 0 1 1 3 12 12 15 10 7
nan nan nan nan nan nan nan nan nan nan nan nan nan nan nan nan 0 nan nan nan 0 0 0 0 0 nan nan nan 0 0 nan nan nan 2 2 2 3 2 2 3 2 3 3 4 5 5 6 6 8 8 8 7 8 3 3 2 0 nan nan 0 1 5 5 9 14 14 8 7 8
nan nan nan nan nan nan nan nan nan nan nan nan nan nan nan nan 1 1 1 1 0 1 1 1 0 nan nan nan 0 0 0 1 0 2 2 2 3 3 3 2 2 4 4 4 3 3 5 7 12 12 15 7 5 2 2 nan 2 1 1 1 3 8 8 10 8 8 5 10 10
nan nan nan nan nan nan nan nan nan nan nan nan nan nan nan nan 0 1 1 1 1 1 1 1 0 3 3 5 5 5 2 10 11 4 4 3 3 3 3 2 3 3 3 3 4 4 4 6 11 11 11 6 4 3 3 1 1 2 2 3 5 6 6 7 7 7 7 10 8
nan nan nan nan nan nan nan nan nan nan nan nan nan nan nan nan nan 0 0 2 3 2 2 1 3 11 11 17 12 12 7 10 34 4 4 2 3 3 3 3 3 3 3 3 3 3 3 6 8 8 8 5 5 3 3 0 1 4 4 5 8 4 4 5 5 5 7 9 9
nan nan nan nan nan nan nan nan nan nan nan nan nan nan nan nan nan 1 1 1 0 0 0 9 20 28 28 18 15 15 11 8 10 6 6 3 3 3 3 3 2 2 2 2 2 2 3 3 6 6 3 4 1 1 1 2 3 4 4 4 4 4 4 4 6 6 9 10 5
nan nan nan nan nan nan nan nan nan nan nan nan nan nan nan nan nan 0 0 1 1 2 2 20 21 23 23 13 12 12 9 6 5 3 3 3 3 3 3 3 3 2 2 1 1 1 1 2 2 2 5 9 5 2 2 3 5 6 6 4 3 4 4 3 8 8 9 7 4
nan nan nan nan nan nan nan nan nan nan nan nan nan nan nan nan nan 1 1 0 1 5 5 13 9 13 13 11 7 7 5 4 4 4 4 4 4 4 4 3 3 1 1 0 0 0 0 1 1 1 2 4 4 3 3 4 4 3 3 4 3 3 3 6 9 9 8 5 4
nan nan nan nan nan nan nan nan nan nan nan nan nan nan nan nan 1 0 0 nan 6 9 9 11 12 9 9 7 3 3 2 2 2 3 3 3 4 4 4 3 1 1 1 0 0 0 0 0 0 0 1 2 3 2 2 4 5 3 3 3 4 7 7 7 8 8 5 2 2
nan nan nan nan nan nan nan nan nan nan nan nan nan nan nan 17 6 nan nan 2 11 11 11 11 10 5 5 3 1 1 0 1 1 3 3 6 6 3 3 2 1 1 1 0 nan nan nan nan nan nan 0 1 1 2 2 2 3 3 3 4 6 6 6 5 3 3 1 2 2
nan nan nan nan nan nan nan nan nan nan nan nan nan nan nan 10 3 2 2 8 8 8 8 9 4 2 2 nan nan nan nan 0 1 2 2 3 6 2 2 1 1 nan nan nan nan nan nan nan nan nan nan nan 0 0 0 0 1 2 2 4 6 5 5 3 1 1 nan 0 2
nan nan nan nan nan nan nan nan nan nan nan nan nan 0 0 nan 1 8 8 11 9 8 8 4 2 1 1 nan nan nan 1 nan 0 1 1 1 2 1 1 1 nan nan nan nan nan nan nan nan nan nan nan nan nan nan nan nan 1 2 2 3 4 3 3 1 1 1 nan 0 1
nan nan nan nan nan nan nan nan nan nan nan 0 1 0 0 2 4 10 10 8 9 4 4 1 1 nan nan nan nan nan nan nan nan 1 1 0 1 0 0 nan nan nan nan nan nan nan nan nan nan nan nan nan nan nan nan nan nan 2 2 3 3 1 1 0 0 0 0 0 0
nan nan nan nan nan nan nan nan nan nan 0 0 1 2 2 3 7 10 10 5 3 0 0 nan nan nan nan nan nan nan nan nan nan nan nan nan 0 nan nan nan nan nan nan nan nan nan nan nan nan nan nan nan nan nan nan nan nan 2 2 2 2 1 1 0 0 0 0 0 0
nan nan nan nan nan nan nan nan 0 0 0 1 1 1 1 2 6 7 7 0 nan nan nan nan nan nan nan nan nan nan nan nan nan nan nan nan nan nan nan nan nan nan nan nan nan nan nan nan nan nan nan nan nan nan nan 0 nan 1 1 1 0 0 0 0 0 0 0 nan 0
0 nan nan nan 0 0 0 0 1 1 2 1 2 1 1 0 0 0 0 nan nan nan nan nan nan nan nan nan nan nan nan nan nan nan nan nan nan nan nan nan nan nan nan nan nan nan nan nan nan nan nan nan nan nan nan nan nan nan nan nan 0 nan nan nan 0 0 nan nan nan
1 1 1 1 0 0 1 1 2 2 2 2 2 1 1 nan nan nan nan nan nan nan nan nan nan nan nan nan nan nan nan nan nan nan nan nan nan nan nan nan nan nan nan nan nan nan nan nan nan nan nan nan nan nan nan nan nan nan nan nan nan nan nan 1 1 1 nan 0 33
2 1 1 1 0 0 1 2 1 1 1 1 0 nan nan nan nan nan nan nan nan nan nan nan nan nan nan nan nan nan nan nan nan nan nan nan nan nan nan nan nan nan nan nan nan nan nan nan nan nan nan nan nan nan nan nan nan 0 0 0 nan nan nan nan nan nan 3 9 8
1 0 0 0 0 0 1 3 1 1 0 0 nan nan nan nan nan nan nan nan nan nan nan nan nan nan nan nan nan nan nan nan nan nan nan nan nan nan nan nan nan nan nan nan nan nan nan nan nan nan nan nan nan nan nan nan nan 0 0 nan nan nan nan nan nan nan nan nan nan
0 0 0 0 nan nan nan nan nan nan nan nan nan nan nan nan nan nan nan nan nan nan nan nan nan nan nan nan nan nan nan nan nan nan nan nan nan nan nan nan nan nan nan nan nan nan nan nan nan nan nan nan nan nan nan nan 0 0 0 nan nan nan nan nan nan nan nan nan nan
0 nan nan nan nan nan nan nan nan nan nan nan nan nan nan nan nan nan nan nan nan nan nan nan nan nan nan nan nan nan nan nan nan nan nan nan nan nan nan nan nan nan nan nan nan nan nan nan nan nan nan nan nan nan nan nan nan nan nan nan nan nan nan nan nan nan nan nan nan
nan nan nan nan nan nan nan nan nan nan nan nan nan nan nan nan nan nan nan nan nan nan nan nan nan nan nan nan nan nan nan nan nan nan nan nan nan nan nan nan nan nan nan nan nan nan nan nan nan nan nan nan nan 0 0 0 nan nan nan nan nan nan nan nan nan nan nan nan nan
nan nan nan nan nan nan nan nan nan nan nan nan nan nan nan nan nan nan nan nan nan nan nan nan nan nan nan nan nan nan nan nan nan nan nan nan nan nan nan nan nan nan nan nan nan nan nan nan nan nan nan 0 1 3 3 nan nan nan nan nan nan nan nan nan nan nan nan nan nan
nan nan nan nan nan nan nan nan nan nan nan nan nan nan nan nan nan nan nan nan nan nan nan nan nan nan nan nan nan nan nan nan nan nan nan nan nan nan nan nan nan nan nan nan 45 45 7 nan nan nan 7 7 1 nan nan nan nan nan nan nan nan nan nan nan nan nan nan nan nan
nan nan nan nan nan nan nan nan nan nan nan nan nan nan nan nan nan nan nan nan nan nan nan nan nan nan nan nan nan nan nan nan nan nan nan nan nan nan nan nan nan nan nan 29 724 724 613 188 32 32 4 2 nan nan nan nan nan nan nan nan nan nan nan nan nan nan nan nan nan
nan nan nan nan nan nan nan nan nan nan nan nan nan nan nan nan nan nan nan nan nan nan nan nan nan nan nan nan nan nan nan nan nan nan nan nan nan nan nan nan nan nan nan 371 799 799 712 544 206 206 26 nan nan nan nan nan nan nan nan nan nan nan nan nan nan nan nan nan nan
nan nan nan nan nan nan nan nan nan nan nan nan nan nan nan nan nan nan nan nan nan nan nan nan nan 1 1 nan nan nan nan nan nan nan nan nan nan nan nan nan nan nan nan 588 798 798 730 556 334 334 72 nan nan nan nan nan nan nan nan nan nan nan nan nan nan nan nan nan nan
nan nan nan nan nan nan nan nan nan nan nan nan nan nan nan nan nan nan nan nan nan nan nan nan nan nan nan nan nan nan nan nan nan nan nan nan nan nan nan nan nan 4 4 621 730 730 727 628 390 390 121 8 nan nan nan nan nan nan nan nan nan nan nan nan nan nan nan nan nan
nan nan nan nan nan nan nan nan nan nan nan nan nan nan nan nan nan nan nan nan nan nan nan nan nan nan nan nan nan nan nan nan nan nan nan nan nan nan nan nan nan 139 139 594 545 545 603 591 439 439 203 28 nan nan nan nan nan nan nan nan nan nan nan nan nan nan nan nan nan
nan nan nan nan nan nan nan nan nan nan nan nan nan nan nan nan nan nan nan nan nan nan nan nan nan nan nan nan nan nan nan nan nan nan nan nan nan nan nan nan nan 204 204 481 378 378 423 428 387 387 243 81 0 nan nan nan nan nan nan nan nan nan nan nan nan nan nan nan nan
nan nan nan nan nan nan nan nan nan nan nan nan nan nan nan nan nan nan nan nan nan nan nan nan nan nan nan nan nan nan nan nan nan nan nan nan nan nan nan nan nan 191 191 339 242 242 225 248 244 244 185 95 5 nan nan nan nan nan nan nan nan nan nan nan nan nan nan nan nan
nan nan nan nan nan nan nan nan nan nan nan nan nan nan nan nan nan nan nan nan nan nan nan nan nan nan nan nan nan nan nan nan nan nan nan nan nan nan nan nan nan 201 201 299 163 163 136 104 112 112 104 56 6 nan nan nan nan nan nan nan nan nan nan nan nan nan nan nan nan
nan nan nan nan nan nan nan nan nan nan nan nan nan nan nan nan nan nan nan nan nan nan nan nan nan nan nan nan nan nan nan nan nan nan nan nan nan nan nan nan nan 311 311 320 128 128 72 41 28 28 26 19 1 nan nan nan nan nan nan nan nan nan nan nan nan nan nan nan 1
nan nan nan nan nan nan nan nan nan nan nan nan nan nan nan nan nan nan nan nan nan nan nan nan nan nan nan nan nan nan nan nan nan nan nan nan nan nan nan nan nan 431 431 369 133 133 64 28 11 11 2 3 nan nan nan nan nan nan nan nan nan nan nan nan nan nan nan nan nan
nan nan nan nan nan nan nan nan nan nan nan nan nan nan nan nan nan nan nan nan nan nan nan nan nan nan nan nan nan nan nan nan nan nan nan nan nan nan nan nan nan 409 409 419 153 153 69 29 9 9 0 nan nan nan nan nan nan nan nan nan nan nan nan nan nan nan nan nan nan
nan nan nan nan nan nan nan nan nan nan nan nan nan nan nan nan nan nan nan nan nan nan nan nan nan nan nan nan nan nan nan nan nan nan nan nan nan nan nan nan nan 237 237 451 207 207 95 38 13 13 nan nan nan nan nan nan nan nan nan nan nan nan nan nan nan nan nan nan nan
nan nan nan nan nan nan nan nan nan nan nan nan nan nan nan nan nan nan nan nan nan nan nan nan nan nan nan nan nan nan nan nan nan nan nan nan nan nan nan nan nan 30 30 451 313 313 136 58 22 22 nan nan nan nan nan nan nan nan nan nan nan nan nan nan nan nan nan nan nan
nan nan nan nan nan nan nan nan nan nan nan nan nan nan nan nan nan nan nan nan nan nan nan nan nan nan nan nan nan nan nan nan nan nan nan nan nan nan nan nan nan nan nan 370 401 401 205 88 38 38 nan nan nan nan nan nan nan nan nan nan nan nan nan nan nan nan nan nan 10
nan nan nan nan nan nan nan nan nan nan nan nan nan nan nan nan nan nan nan nan nan nan nan nan nan nan nan nan nan nan nan nan nan nan nan nan nan nan nan nan nan nan nan 252 420 420 297 148 58 58 nan nan nan nan nan nan nan nan nan nan nan nan nan nan nan nan nan nan 59
nan nan nan nan nan nan nan nan nan nan nan nan nan nan nan nan nan nan nan nan nan nan nan nan nan nan nan nan nan nan nan nan nan nan nan nan nan 3 3 nan nan nan nan 152 368 368 361 236 109 109 10 nan nan nan nan nan nan nan nan nan nan nan nan nan nan nan nan nan 39
nan nan nan nan nan nan nan nan nan nan nan nan nan nan nan nan nan nan nan nan nan nan nan nan nan nan nan nan nan nan nan nan nan nan nan nan nan 0 0 nan nan nan nan 64 316 316 383 338 209 209 46 nan nan nan nan nan nan nan nan nan nan nan nan nan nan nan nan nan nan